Location: Newark
(44.8699°N, 13.8438°E)
Time: 20:14:05
(UTC+00:00)

Envisat - Pass Details

Date: 16 September 2019
Orbit: 764 x 766 km, 98.1° (Epoch: 21 October)

Event Time Altitude Azimuth Distance (km) Brightness Sun altitude
Rises 18:31:33 0° 210° (SSW) 3,221 6.4 -14.2°
Reaches altitude 10° 18:34:41 10° 231° (SW) 2,301 5.9 -14.7°
Maximum altitude 18:37:53 17° 270° (W) 1,885 6.0 -15.3°
Drops below altitude 10° 18:41:06 10° 310° (NW) 2,312 6.6 -15.8°
Sets 18:44:16 0° 331° (NNW) 3,244 7.1 -16.3°
